CGR866 SCIE-SCEL

Flight info

Callsign CGR866
Flight time 0h 53m
Altitude 34000
Route LODOS4N LODOS UQ808 EROLO EROLO7F
Aircraft B739/M-SDE2E3FGHIRWXY/LB1

Departure

Time 2026-04-30 12:59
Airport Carriel Sur International Airport (SCIE)

Arrival

Time 2026-04-30 13:53
Airport Comodoro Arturo Merino Benítez International Airport (SCEL)
Time Latitude Longitude Altitude Speed Heading
2026-04-30 12:23 -36.77609 -73.05896 59 ft 0 kts 200°
2026-04-30 12:44 -36.77600 -73.05891 59 ft 2 kts 209°
2026-04-30 12:44 -36.77586 -73.05880 53 ft 2 kts 224°
2026-04-30 12:44 -36.77576 -73.05864 54 ft 2 kts 249°
2026-04-30 12:44 -36.77572 -73.05844 51 ft 2 kts 274°
2026-04-30 12:45 -36.77575 -73.05823 54 ft 2 kts 289°
2026-04-30 12:45 -36.77579 -73.05812 53 ft 1 kts 295°
2026-04-30 12:45 -36.77579 -73.05811 54 ft 0 kts 295°
2026-04-30 12:48 -36.77578 -73.05813 53 ft 2 kts 295°
2026-04-30 12:48 -36.77562 -73.05855 52 ft 7 kts 295°
2026-04-30 12:49 -36.77547 -73.05917 59 ft 8 kts 282°
2026-04-30 12:49 -36.77540 -73.05993 59 ft 9 kts 272°
2026-04-30 12:49 -36.77532 -73.06078 59 ft 10 kts 285°
2026-04-30 12:49 -36.77505 -73.06160 56 ft 10 kts 300°
2026-04-30 12:50 -36.77442 -73.06177 57 ft 10 kts 19°
2026-04-30 12:50 -36.77370 -73.06139 59 ft 12 kts 23°
2026-04-30 12:50 -36.77293 -73.06093 52 ft 13 kts 29°
2026-04-30 12:50 -36.77208 -73.06045 54 ft 14 kts 25°
2026-04-30 12:51 -36.77118 -73.05990 60 ft 15 kts 25°
2026-04-30 12:51 -36.77020 -73.05934 59 ft 16 kts 24°
2026-04-30 12:51 -36.76919 -73.05874 60 ft 16 kts 26°
2026-04-30 12:51 -36.76817 -73.05814 60 ft 17 kts 25°
2026-04-30 12:52 -36.76709 -73.05753 53 ft 17 kts 24°
2026-04-30 12:52 -36.76597 -73.05687 53 ft 18 kts 26°
2026-04-30 12:52 -36.76480 -73.05619 60 ft 19 kts 24°
2026-04-30 12:52 -36.76411 -73.05584 54 ft 9 kts 12°
2026-04-30 12:53 -36.76360 -73.05614 59 ft 8 kts 305°
2026-04-30 12:53 -36.76352 -73.05630 61 ft 0 kts 301°
2026-04-30 12:55 -36.76349 -73.05637 61 ft 3 kts 301°
2026-04-30 12:56 -36.76332 -73.05672 61 ft 6 kts 301°
2026-04-30 12:56 -36.76303 -73.05718 61 ft 8 kts 320°
2026-04-30 12:56 -36.76239 -73.05728 64 ft 12 kts 19°
2026-04-30 12:56 -36.76165 -73.05645 61 ft 15 kts 51°
2026-04-30 12:57 -36.76120 -73.05591 61 ft 8 kts 11°
2026-04-30 12:57 -36.76102 -73.05604 63 ft 2 kts 297°
2026-04-30 12:57 -36.76096 -73.05628 62 ft 3 kts 267°
2026-04-30 12:57 -36.76110 -73.05650 63 ft 3 kts 213°
2026-04-30 12:58 -36.76128 -73.05663 65 ft 3 kts 208°
2026-04-30 12:58 -36.76161 -73.05684 60 ft 10 kts 205°
2026-04-30 12:58 -36.76297 -73.05762 64 ft 32 kts 205°
2026-04-30 12:58 -36.76596 -73.05937 63 ft 81 kts 204°
2026-04-30 12:59 -36.77334 -73.06362 62 ft 149 kts 205°
2026-04-30 12:59 -36.78408 -73.06950 369 ft 174 kts 202°
2026-04-30 12:59 -36.79467 -73.07597 1333 ft 169 kts 207°
2026-04-30 12:59 -36.80580 -73.08270 1821 ft 190 kts 205°
2026-04-30 13:00 -36.81898 -73.08787 2003 ft 215 kts 179°
2026-04-30 13:00 -36.83307 -73.08064 2330 ft 231 kts 136°
2026-04-30 13:00 -36.84098 -73.06303 2853 ft 239 kts 104°
2026-04-30 13:00 -36.84083 -73.04234 3388 ft 244 kts 73°
2026-04-30 13:01 -36.83190 -73.02455 3964 ft 244 kts 41°
2026-04-30 13:01 -36.81835 -73.01193 4588 ft 244 kts 30°
2026-04-30 13:01 -36.80364 -73.00065 4985 ft 256 kts 28°
2026-04-30 13:01 -36.78786 -72.98901 5416 ft 269 kts 28°
2026-04-30 13:02 -36.77158 -72.97700 6196 ft 272 kts 27°
2026-04-30 13:02 -36.75526 -72.96488 6946 ft 276 kts 27°
2026-04-30 13:02 -36.73860 -72.95244 7655 ft 281 kts 27°
2026-04-30 13:02 -36.72163 -72.93971 8374 ft 286 kts 27°
2026-04-30 13:03 -36.70467 -72.92694 9074 ft 292 kts 27°
2026-04-30 13:03 -36.68715 -72.91371 9777 ft 297 kts 27°
2026-04-30 13:03 -36.66933 -72.90024 10342 ft 306 kts 26°
2026-04-30 13:03 -36.65044 -72.88600 10519 ft 329 kts 27°
2026-04-30 13:04 -36.63014 -72.87070 10678 ft 351 kts 27°
2026-04-30 13:04 -36.60884 -72.85459 11006 ft 365 kts 27°
2026-04-30 13:04 -36.58696 -72.83798 11579 ft 370 kts 27°
2026-04-30 13:04 -36.56494 -72.82125 12261 ft 372 kts 27°
2026-04-30 13:05 -36.54293 -72.80454 12928 ft 374 kts 27°
2026-04-30 13:05 -36.52059 -72.78760 13575 ft 378 kts 27°
2026-04-30 13:05 -36.49804 -72.77054 14142 ft 382 kts 26°
2026-04-30 13:06 -36.45217 -72.73589 15210 ft 389 kts 26°
2026-04-30 13:06 -36.42890 -72.71835 15741 ft 393 kts 26°
2026-04-30 13:06 -36.40540 -72.70064 16272 ft 397 kts 26°
2026-04-30 13:06 -36.38170 -72.68277 16787 ft 401 kts 26°
2026-04-30 13:07 -36.35777 -72.66475 17300 ft 404 kts 26°
2026-04-30 13:07 -36.33357 -72.64654 17813 ft 408 kts 26°
2026-04-30 13:07 -36.30919 -72.62821 18300 ft 412 kts 26°
2026-04-30 13:07 -36.28469 -72.60980 18733 ft 415 kts 26°
2026-04-30 13:08 -36.25986 -72.59118 19203 ft 418 kts 26°
2026-04-30 13:08 -36.23495 -72.57249 19678 ft 421 kts 25°
2026-04-30 13:08 -36.20984 -72.55366 20148 ft 423 kts 25°
2026-04-30 13:08 -36.18452 -72.53468 20621 ft 426 kts 25°
2026-04-30 13:09 -36.15909 -72.51565 21077 ft 429 kts 25°
2026-04-30 13:09 -36.13347 -72.49648 21495 ft 432 kts 25°
2026-04-30 13:09 -36.10765 -72.47719 21908 ft 435 kts 25°
2026-04-30 13:09 -36.08170 -72.45781 22327 ft 438 kts 25°
2026-04-30 13:10 -36.05601 -72.43865 22730 ft 441 kts 25°
2026-04-30 13:10 -36.02962 -72.41895 23134 ft 444 kts 24°
2026-04-30 13:10 -36.00296 -72.39907 23533 ft 447 kts 24°
2026-04-30 13:10 -35.97621 -72.37916 23862 ft 450 kts 24°
2026-04-30 13:11 -35.94930 -72.35914 24218 ft 451 kts 24°
2026-04-30 13:11 -35.92250 -72.33919 24591 ft 453 kts 24°
2026-04-30 13:11 -35.89581 -72.31931 24951 ft 454 kts 24°
2026-04-30 13:11 -35.86869 -72.29911 25299 ft 456 kts 24°
2026-04-30 13:12 -35.84147 -72.27885 25646 ft 458 kts 24°
2026-04-30 13:12 -35.81418 -72.25854 25999 ft 460 kts 24°
2026-04-30 13:12 -35.78667 -72.23809 26350 ft 462 kts 24°
2026-04-30 13:13 -35.73141 -72.19707 27009 ft 465 kts 23°
2026-04-30 13:13 -35.70360 -72.17644 27341 ft 466 kts 23°
2026-04-30 13:13 -35.64781 -72.13513 27965 ft 470 kts 23°
2026-04-30 13:14 -35.62919 -72.12136 28143 ft 472 kts 23°
2026-04-30 13:14 -35.60098 -72.10051 28459 ft 473 kts 23°
2026-04-30 13:14 -35.53517 -72.05190 29233 ft 475 kts 23°
2026-04-30 13:15 -35.50685 -72.03101 29653 ft 474 kts 23°
2026-04-30 13:15 -35.45997 -71.99643 30423 ft 470 kts 22°
2026-04-30 13:15 -35.43204 -71.97588 30758 ft 469 kts 22°
2026-04-30 13:16 -35.40404 -71.95532 31029 ft 470 kts 22°
2026-04-30 13:16 -35.37601 -71.93474 31288 ft 470 kts 23°
2026-04-30 13:16 -35.34804 -71.91422 31597 ft 469 kts 23°
2026-04-30 13:17 -35.29201 -71.87318 32203 ft 468 kts 23°
2026-04-30 13:17 -35.26401 -71.85270 32463 ft 468 kts 23°
2026-04-30 13:17 -35.20802 -71.81177 33037 ft 467 kts 23°
2026-04-30 13:18 -35.18008 -71.79137 33307 ft 467 kts 23°
2026-04-30 13:18 -35.12464 -71.75091 33830 ft 467 kts 23°
2026-04-30 13:18 -35.09672 -71.73057 34008 ft 467 kts 23°
2026-04-30 13:19 -35.04073 -71.68988 33991 ft 467 kts 23°
2026-04-30 13:19 -34.98497 -71.64936 33981 ft 465 kts 23°
2026-04-30 13:20 -34.92995 -71.60945 33987 ft 461 kts 23°
2026-04-30 13:20 -34.87486 -71.56957 33986 ft 460 kts 23°
2026-04-30 13:21 -34.81971 -71.52973 33980 ft 460 kts 23°
2026-04-30 13:22 -34.73695 -71.47001 33974 ft 461 kts 23°
2026-04-30 13:22 -34.65412 -71.41039 33973 ft 463 kts 22°
2026-04-30 13:23 -34.56685 -71.36392 33973 ft 454 kts 13°
2026-04-30 13:24 -34.44798 -71.30818 32620 ft 462 kts 14°
2026-04-30 13:25 -34.38924 -71.27928 31533 ft 451 kts 14°
2026-04-30 13:25 -34.33178 -71.25097 30463 ft 441 kts 14°
2026-04-30 13:26 -34.24751 -71.20972 28775 ft 428 kts 15°
2026-04-30 13:26 -34.19283 -71.18302 27745 ft 419 kts 14°
2026-04-30 13:27 -34.13967 -71.15711 26732 ft 410 kts 15°
2026-04-30 13:28 -34.06131 -71.11897 25382 ft 397 kts 15°
2026-04-30 13:28 -34.01050 -71.09427 24486 ft 391 kts 15°
2026-04-30 13:28 -33.98536 -71.08207 24043 ft 388 kts 14°
2026-04-30 13:29 -33.93401 -71.07392 22953 ft 368 kts 353°
2026-04-30 13:29 -33.88320 -71.07561 21961 ft 362 kts 353°
2026-04-30 13:30 -33.80826 -71.07791 20576 ft 356 kts 354°
2026-04-30 13:31 -33.75909 -71.07912 19690 ft 351 kts 354°
2026-04-30 13:31 -33.68658 -71.08078 18358 ft 348 kts 355°
2026-04-30 13:32 -33.63860 -71.08186 17406 ft 345 kts 356°
2026-04-30 13:32 -33.59101 -71.08292 16505 ft 340 kts 356°
2026-04-30 13:33 -33.54395 -71.08396 15632 ft 335 kts 356°
2026-04-30 13:33 -33.49765 -71.08500 14783 ft 331 kts 356°
2026-04-30 13:34 -33.47473 -71.08551 14367 ft 328 kts 356°
2026-04-30 13:34 -33.40669 -71.08702 13043 ft 323 kts 357°
2026-04-30 13:35 -33.38460 -71.08751 12610 ft 320 kts 357°
2026-04-30 13:35 -33.34045 -71.08849 11780 ft 314 kts 357°
2026-04-30 13:36 -33.29700 -71.08946 10960 ft 311 kts 357°
2026-04-30 13:36 -33.27546 -71.08994 10540 ft 310 kts 357°
2026-04-30 13:36 -33.23347 -71.09086 10156 ft 292 kts 356°
2026-04-30 13:37 -33.21330 -71.09131 10062 ft 284 kts 357°
2026-04-30 13:37 -33.17485 -71.08697 10014 ft 275 kts
2026-04-30 13:38 -33.13717 -71.07813 10024 ft 276 kts
2026-04-30 13:38 -33.11879 -71.07388 10009 ft 268 kts
2026-04-30 13:38 -33.08421 -71.06611 10011 ft 238 kts
2026-04-30 13:39 -33.05318 -71.05932 9996 ft 214 kts
2026-04-30 13:39 -33.02509 -71.05325 10016 ft 202 kts
2026-04-30 13:40 -33.01115 -71.05026 10030 ft 204 kts
2026-04-30 13:40 -32.99680 -71.04719 10039 ft 213 kts
2026-04-30 13:40 -32.98214 -71.04405 10005 ft 221 kts
2026-04-30 13:40 -32.96688 -71.04077 9836 ft 222 kts
2026-04-30 13:41 -32.95178 -71.03752 9653 ft 219 kts
2026-04-30 13:41 -32.93693 -71.03432 9558 ft 217 kts
2026-04-30 13:41 -32.92201 -71.03112 9525 ft 217 kts
2026-04-30 13:41 -32.90716 -71.02793 9518 ft 217 kts
2026-04-30 13:42 -32.89264 -71.02317 9499 ft 221 kts 27°
2026-04-30 13:42 -32.88169 -71.01024 9524 ft 229 kts 56°
2026-04-30 13:42 -32.88099 -70.97225 9189 ft 241 kts 103°
2026-04-30 13:43 -32.88622 -70.95345 9008 ft 238 kts 105°
2026-04-30 13:43 -32.89155 -70.93496 8843 ft 235 kts 105°
2026-04-30 13:43 -32.89671 -70.91664 8670 ft 232 kts 104°
2026-04-30 13:43 -32.90171 -70.89846 8516 ft 230 kts 104°
2026-04-30 13:44 -32.90662 -70.88044 8364 ft 229 kts 104°
2026-04-30 13:44 -32.91152 -70.86239 8201 ft 229 kts 104°
2026-04-30 13:44 -32.91818 -70.84545 8039 ft 234 kts 130°
2026-04-30 13:44 -32.93188 -70.83503 7895 ft 240 kts 166°
2026-04-30 13:45 -32.96474 -70.82779 7509 ft 238 kts 171°
2026-04-30 13:45 -32.98103 -70.82516 7324 ft 234 kts 175°
2026-04-30 13:45 -32.99708 -70.82364 7145 ft 229 kts 177°
2026-04-30 13:46 -33.01290 -70.82262 6962 ft 226 kts 178°
2026-04-30 13:46 -33.02855 -70.82174 6796 ft 224 kts 178°
2026-04-30 13:46 -33.04378 -70.82093 6650 ft 220 kts 178°
2026-04-30 13:46 -33.05900 -70.82015 6482 ft 219 kts 178°
2026-04-30 13:47 -33.07419 -70.81935 6313 ft 219 kts 178°
2026-04-30 13:47 -33.08943 -70.81855 6137 ft 218 kts 178°
2026-04-30 13:47 -33.09953 -70.81802 6019 ft 219 kts 178°
2026-04-30 13:48 -33.13157 -70.81635 5650 ft 218 kts 178°
2026-04-30 13:48 -33.14665 -70.81556 5481 ft 216 kts 178°
2026-04-30 13:48 -33.16160 -70.81477 5321 ft 214 kts 178°
2026-04-30 13:48 -33.17648 -70.81399 5156 ft 213 kts 178°
2026-04-30 13:49 -33.19127 -70.81322 5036 ft 212 kts 178°
2026-04-30 13:49 -33.20614 -70.81243 4807 ft 216 kts 178°
2026-04-30 13:49 -33.22112 -70.81165 4509 ft 214 kts 178°
2026-04-30 13:49 -33.23582 -70.81087 4229 ft 208 kts 178°
2026-04-30 13:50 -33.25007 -70.81013 3960 ft 201 kts 178°
2026-04-30 13:50 -33.27686 -70.80872 3444 ft 185 kts 178°
2026-04-30 13:50 -33.28933 -70.80807 3202 ft 173 kts 178°
2026-04-30 13:51 -33.30089 -70.80746 3037 ft 161 kts 178°
2026-04-30 13:51 -33.31217 -70.80687 2765 ft 160 kts 178°
2026-04-30 13:51 -33.32316 -70.80630 2557 ft 156 kts 178°
2026-04-30 13:51 -33.33395 -70.80573 2366 ft 156 kts 178°
2026-04-30 13:52 -33.34504 -70.80531 2179 ft 162 kts 179°
2026-04-30 13:52 -33.35597 -70.80473 1972 ft 155 kts 175°
2026-04-30 13:52 -33.36657 -70.80390 1696 ft 151 kts 179°
2026-04-30 13:52 -33.37677 -70.80344 1573 ft 136 kts 178°
2026-04-30 13:53 -33.38526 -70.80303 1572 ft 105 kts 177°
2026-04-30 13:53 -33.39032 -70.80276 1573 ft 8 kts 177°
2026-04-30 13:53 -33.39088 -70.80274 1572 ft 8 kts 180°
2026-04-30 13:53 -33.39153 -70.80273 1572 ft 11 kts 179°
2026-04-30 13:54 -33.39236 -70.80251 1571 ft 14 kts 161°
2026-04-30 13:54 -33.39329 -70.80200 1570 ft 16 kts 144°
2026-04-30 13:54 -33.39414 -70.80132 1567 ft 10 kts 148°
2026-04-30 13:54 -33.39475 -70.80088 1566 ft 10 kts 148°
2026-04-30 13:55 -33.39517 -70.80029 1565 ft 9 kts 109°
2026-04-30 13:55 -33.39530 -70.79952 1564 ft 9 kts 91°
2026-04-30 13:55 -33.39527 -70.79876 1564 ft 9 kts 88°
2026-04-30 13:55 -33.39525 -70.79803 1564 ft 9 kts 89°
2026-04-30 13:56 -33.39522 -70.79704 1564 ft 14 kts 86°
2026-04-30 13:56 -33.39515 -70.79588 1564 ft 14 kts 87°
2026-04-30 13:56 -33.39512 -70.79476 1563 ft 13 kts 88°
2026-04-30 13:56 -33.39508 -70.79369 1563 ft 13 kts 88°
2026-04-30 13:57 -33.39503 -70.79258 1563 ft 15 kts 86°
2026-04-30 13:57 -33.39497 -70.79136 1563 ft 13 kts 86°
2026-04-30 13:57 -33.39495 -70.79077 1563 ft 6 kts 86°
2026-04-30 13:57 -33.39493 -70.79030 1563 ft 6 kts 88°
2026-04-30 13:58 -33.39492 -70.78987 1563 ft 5 kts 89°
2026-04-30 13:58 -33.39531 -70.78960 1562 ft 4 kts 204°
2026-04-30 13:58 -33.39555 -70.78965 1560 ft 3 kts 185°
2026-04-30 13:59 -33.39560 -70.78966 1560 ft 0 kts 185°